Location: Mauries
(43.6188°N, 0.3322°W)
Time: 02:55:43
(UTC+00:00)

Daily predictions for brighter satellites

Satellite Brightness Start Highest point End
(mag) Time Altitude Azimuth Time Altitude Azimuth Time Altitude Azimuth
ATLAS 2AS CENTAUR R/B 4.5 04:23:05 18° N 04:25:08 20° NNE 04:29:56 10° ENE
Cosmos 1302 Rocket 4.1 04:49:28 71° E 04:49:28 71° E 04:54:26 10° SSE
Cosmos 909 Rocket 4.1 04:58:14 63° WNW 04:59:20 77° WSW 05:06:44 10° SSE
GEOS 3 Rocket 4.5 04:57:16 10° ESE 05:02:12 45° NE 05:04:14 31° N
Cosmos 381 Rocket 4.4 05:01:59 57° SW 05:03:17 73° WNW 05:09:43 10° NNE
ARIANE 6 FM1 Upper Stage 2.9 05:13:25 60° ENE 05:13:25 60° ENE 05:17:11 10° SE
NOAA 12 4.1 05:08:19 10° NNE 05:13:35 80° ESE 05:18:48 10° S
Cosmos 2082 Rocket 4.2 05:09:45 10° N 05:14:13 23° NE 05:18:38 10° ESE
CZ-4 R/B 4.1 05:11:08 10° NNE 05:15:55 70° ESE 05:20:45 10° S
Cosmos 2278 Rocket 3.6 05:11:31 10° S 05:16:40 38° ESE 05:21:51 10° NE
BREEZE-M DEB (TANK) 3.6 05:12:42 37° WNW 05:16:40 80° SSW 05:20:37 10° SE
Cosmos 1992 Rocket 4.1 05:18:02 30° NNW 05:20:39 75° ENE 05:25:51 10° SSE
Cosmos 1515 Rocket 3.4 05:21:46 56° NNW 05:22:41 87° W 05:27:04 10° S
Cosmos 1833 Rocket 2.5 05:25:07 39° NW 05:27:14 74° WSW 05:32:49 10° SSE
BREEZE-M DEB (TANK) 4.3 05:29:52 27° NNE 05:29:52 27° NNE 05:32:45 10° ENE
Meteor 2-13 Rocket 4.4 05:28:56 10° N 05:35:06 86° E 05:41:12 10° S
SL-23 DEB 3.2 05:38:13 83° SW 05:38:19 87° SSE 05:41:29 10° ENE
Okean 3 3.9 05:35:49 10° N 05:39:46 57° E 05:43:41 10° SSE
COSMO-SKYMED 1 2.3 05:38:52 10° S 05:42:58 75° WSW 05:45:20 25° NNW
Cosmos 1943 Rocket 2.3 05:39:31 10° SSW 05:45:00 73° ESE 05:50:29 10° NNE
Okean 3 Rocket 3.6 05:42:24 10° SSW 05:46:40 51° WNW 05:50:59 10° N
Cosmos 1484 Rocket 2.9 05:47:49 10° NNE 05:51:11 61° ESE 05:54:33 10° S
SKYMED 2 4.1 05:48:54 10° SSW 05:52:54 36° W 05:53:27 35° W
Timation 1 Rocket 4.4 05:47:38 12° NNW 05:53:11 79° ENE 05:59:11 10° SSE
Cosmos 1805 Rocket 3.4 05:49:05 10° S 05:53:30 81° W 05:57:56 10° N
Meteor 2-10 Rocket 3.4 05:50:57 10° S 05:55:59 86° W 06:01:15 10° N
TIMED 4.3 05:51:56 10° SSW 05:56:10 76° WNW 06:00:26 10° NNE
RUBIN 8/PSLV 4.4 05:55:26 10° N 05:59:35 65° WNW 06:03:44 10° SSW
Cosmos 2154 Rocket 4.0 05:53:56 10° S 06:00:16 85° W 06:06:36 10° N
Cosmos 1295 Rocket 4.5 05:55:38 10° SSW 06:01:55 66° W 06:08:12 10° N
Cosmos 1500 Rocket 3.4 05:58:02 10° SSW 06:02:19 65° W 06:06:41 10° N
IRS-1D 4.0 05:58:44 10° N 06:03:37 38° WNW 06:08:29 10° SW
USA 234 4.0 05:57:52 10° ENE 06:04:16 54° SE 06:10:39 10° SSW
Sich 1 3.5 06:02:55 10° SW 06:06:46 34° WNW 06:10:37 10° N
Cosmos 1408 Rocket 3.7 06:04:08 10° SSW 06:08:20 48° WNW 06:12:32 10° N
IGS 5A 3.2 06:04:24 10° N 06:08:22 72° WNW 06:12:19 10° SSW
SMAP 3.7 06:09:29 10° NNE 06:14:07 60° E 06:18:42 10° S
Okean 1-7 4.2 06:13:16 10° N 06:17:13 42° ENE 06:21:10 10° SSE
ATLAS 2AS CENTAUR R/B 3.1 06:10:44 10° NNW 06:17:27 61° NE 06:24:07 10° SE
SJ 16-02 4.4 06:14:49 10° SE 06:17:33 17° E 06:20:17 10° NE
Okean 2 4.0 06:16:26 19° NW 06:18:25 30° W 06:21:46 10° SSW
Lacrosse 5 rocket 3.5 06:17:46 10° NNW 06:18:43 11° N 06:19:40 10° NNE
Thor Agena Rocket 4.1 06:15:27 10° NNE 06:20:30 61° ESE 06:25:35 10° S
Cosmos 921 Rocket 3.3 06:18:52 10° SW 06:22:58 42° WNW 06:27:03 10° N
Timation 2 Rocket 4.0 06:18:13 10° SW 06:24:51 70° WNW 06:31:14 10° NNE
BREEZE-M DEB (TANK) 4.5 06:24:16 17° WNW 06:27:31 62° SSW 06:42:24 10° SE
Helios 1A Rocket 3.2 06:28:14 10° SSW 06:31:14 30° W 06:34:07 11° NW
Cosmos 1953 3.7 06:36:08 10° SSE 06:39:31 38° E 06:42:57 10° NNE
GEOS 3 Rocket 4.3 06:35:29 10° S 06:40:13 36° WSW 06:45:05 10° NW
Cosmos 1339 Rocket 4.5 06:36:04 10° NNW 06:42:04 63° W 06:48:04 10° S
Gblst 52 Del rocket 4.4 06:37:11 12° NW 06:42:20 67° NNE 06:47:59 10° ESE
Meteor 2-19 Rocket 4.5 06:36:51 10° N 06:42:57 89° E 06:49:00 10° S
Cosmos 2184 Rocket 4.5 06:37:38 10° SW 06:43:17 36° WNW 06:48:57 10° N
Cosmos 1862 Rocket 3.5 06:39:53 10° N 06:44:15 79° W 06:48:32 10° S
USA 32 4.3 06:43:00 10° SSW 06:48:01 46° W 06:53:04 10° N
ATLAS CENTAUR R/B 0.4 06:45:42 10° NW 06:48:45 85° WSW 06:51:43 10° SSE
Cosmos 44 3.5 06:45:37 10° NW 06:50:59 80° WSW 06:56:21 10° SSE
Molniya-1 3.4 06:48:31 10° SSW 06:51:09 78° SE 06:56:20 10° NE
ARIANE 6 FM1 Upper Stage 4.5 06:49:37 10° W 06:51:48 14° WSW 06:53:58 10° SSW
SJ-12 3.7 06:48:12 10° NNE 06:52:03 85° WNW 06:55:51 10° SSW
CENTAUR R/B 3.1 06:47:08 10° SSW 06:52:18 59° ESE 06:58:48 10° NE
COSMOS 2406 3.7 06:46:42 10° NNW 06:52:24 62° ENE 06:58:05 10° SE
SL-8 Rocket 4.1 06:49:18 10° S 06:55:38 90° W 07:01:58 10° N
SeaSat 1 2.7 06:51:47 10° NNE 06:56:29 47° WNW 07:01:09 10° SW
Cosmos 1269 Rocket 4.5 06:52:44 10° SW 06:57:39 39° WNW 07:02:38 10° N
Cosmos 2082 Rocket 2.3 06:53:07 10° NNW 06:58:44 64° WSW 07:04:20 10° S
Cosmos 1707 Rocket 3.7 06:56:11 10° NNW 07:00:24 54° W 07:04:37 10° S
Cosmos 2278 Rocket 2.8 06:55:38 10° WSW 07:00:44 34° NW 07:05:53 10° N
YAOGAN 1 4.0 06:58:05 10° NNE 07:02:09 43° E 07:06:12 10° S
Cosmos 1758 4.5 07:00:01 10° WSW 07:02:48 20° WNW 07:05:35 10° NNW
NOSS 2-2 (C) 4.4 07:00:01 10° SSW 07:03:24 41° ESE 07:06:19 10° NE
Cosmos 864 Rocket 4.5 07:02:11 10° S 07:08:18 80° W 07:14:29 10° N
